Volver al catálogo

SL-12 DEB

LostHEO
NORAD 39799·DEBRIS·🇷🇺 Russia

Lanzado Sep 25, 2008 desde Baikonur Cosmodrome

Loading…

Próximos Pases (próximas 24 horas)

TLE

ObsoletoSource: Space-Track

Época: Apr 8, 2023, 23:46 UTC

1 39799U 08046L   23098.99032894  .00001196  00000-0  62366-2 0  9993
2 39799  64.9447  78.9618 5666432 318.4243  10.0975  4.23908574136935

Sigue SL-12 DEB en tiempo real con AllMySat

Download on the App Store